Wind_Speed
103 110 107 99 92 89 92 96 92 89 88 97 91 87 80 81 86 87 81 68 65 63 63 63 63 66 63 65 65 64 65 65 63 65 66 63 60 56 54 50 49 47 42 38
110 102 82 85 84 96 97 96 86 83 82 93 90 86 78 77 81 78 73 68 63 66 63 65 68 66 63 64 63 60 61 62 62 62 61 60 56 51 51 47 47 43 39 40
105 86 84 85 90 92 88 88 82 83 86 87 83 81 67 69 73 72 72 67 62 64 64 67 69 66 61 61 60 59 60 58 60 59 58 55 50 50 48 45 43 40 41 44
99 79 83 86 88 81 81 79 77 78 77 78 83 71 67 63 63 67 64 62 61 61 61 63 61 60 58 58 56 57 56 57 57 53 54 50 50 47 43 43 38 39 44 44
91 91 90 90 74 81 69 75 72 75 73 72 68 66 56 62 62 61 59 58 56 58 57 55 52 52 52 49 51 53 52 53 49 52 49 47 47 40 40 35 39 41 39 36
100 100 98 85 84 81 73 75 72 70 69 62 55 53 45 49 50 51 49 52 53 53 52 49 48 47 45 46 46 46 48 44 48 45 43 45 38 35 31 35 38 35 36 37
106 108 102 96 89 81 78 75 71 66 62 50 49 50 42 45 41 43 47 47 47 48 44 44 43 39 37 38 39 41 40 43 41 40 42 35 31 27 29 34 34 33 34 24
117 116 106 94 90 83 81 77 67 57 55 50 50 45 40 38 39 40 41 39 37 39 36 36 32 29 31 32 33 35 38 37 37 40 33 28 26 23 26 31 29 30 22 16
119 112 107 106 97 92 82 86 57 67 58 53 45 33 41 36 38 36 36 29 30 28 25 19 20 27 26 26 29 33 32 33 37 33 24 25 16 19 26 26 25 26 18 10
111 114 112 108 99 96 95 71 83 69 62 51 45 38 44 38 32 29 23 15 18 14 14 20 24 24 21 23 29 29 28 33 35 24 21 19 10 14 25 21 21 20 8 5
92 93 104 109 109 98 91 88 80 70 67 59 49 42 48 31 29 25 12 18 18 17 22 20 21 16 19 24 27 25 28 34 27 20 19 11 8 11 19 21 18 16 8 3
85 79 85 93 100 100 91 88 80 72 65 58 45 48 33 33 25 23 17 23 21 20 19 23 17 17 20 26 23 24 30 30 23 16 16 8 2 8 16 20 17 12 8 3
84 76 78 78 82 86 96 90 84 77 71 64 52 49 47 35 25 14 16 20 20 21 21 19 17 15 22 22 22 25 30 23 17 14 10 9 1 7 15 19 15 14 6 1
69 79 77 81 74 77 83 87 83 77 74 63 51 57 39 33 25 16 20 23 22 21 19 16 14 17 20 18 21 25 25 19 14 11 7 10 5 6 13 20 13 12 8 2
59 70 81 84 76 81 79 81 81 77 71 61 57 45 40 31 24 27 30 25 18 20 18 21 15 17 15 16 19 24 20 15 10 9 8 14 8 6 12 16 17 9 5 3
54 66 80 79 80 79 75 80 85 81 72 56 58 48 40 33 34 26 32 21 21 21 19 12 14 12 11 14 18 21 17 12 9 8 6 15 13 7 10 12 17 11 5 2
54 64 75 84 83 73 73 76 80 78 71 60 58 51 42 32 38 33 29 23 24 20 15 10 10 10 10 13 17 19 15 9 7 8 5 11 12 8 9 8 13 17 7 4
54 62 73 88 79 69 71 76 80 79 69 65 66 52 39 34 27 31 34 21 22 21 17 9 8 10 10 12 16 17 14 8 7 8 5 6 11 7 6 6 9 17 7 5
54 64 74 79 81 80 76 83 87 83 73 69 64 43 34 27 38 37 34 26 26 23 15 11 11 10 8 10 13 14 12 7 6 9 6 5 7 5 3 2 6 10 4 3
56 66 70 80 85 81 80 83 78 73 67 66 55 46 42 45 44 39 34 29 28 20 14 15 13 11 7 8 9 11 9 4 6 9 9 1 7 9 6 5 1 6 6 1
57 63 75 87 90 85 80 84 80 80 71 69 53 46 46 44 38 37 32 28 29 22 16 18 16 11 7 6 7 9 7 6 7 9 8 6 3 7 9 10 7 2 3 3
58 62 75 90 92 90 89 95 86 71 71 64 51 48 46 47 46 40 34 35 29 23 19 22 18 11 7 5 3 5 5 8 8 9 8 7 7 5 3 9 8 7 5 2
59 66 80 91 95 92 87 84 76 72 72 64 56 53 49 50 50 40 36 38 30 26 23 25 21 13 10 7 1 2 4 6 11 10 9 9 9 9 7 5 8 9 8 7
61 72 84 92 94 94 92 88 81 79 77 68 60 54 53 55 52 42 45 43 34 29 28 28 23 17 12 9 4 1 3 4 8 12 11 11 11 11 9 8 5 8 10 7
63 74 83 91 91 95 95 89 86 81 76 66 60 58 55 57 49 49 49 47 37 31 34 34 27 21 17 14 7 3 2 3 6 10 12 11 9 8 7 8 8 8 7 10
67 78 87 89 96 95 92 88 85 82 75 67 63 58 59 59 54 53 51 49 42 37 41 38 33 26 22 18 12 7 4 4 3 5 9 10 12 11 11 8 7 7 9 9
Wind_Direction
250 251 254 257 255 250 254 257 259 259 257 264 266 267 267 268 271 273 274 274 272 271 273 277 275 275 279 282 285 289 292 296 300 304 307 306 306 307 315 311 314 316 312 304
248 250 253 249 250 253 254 255 257 254 255 260 266 269 269 265 270 268 267 264 267 273 272 271 270 272 277 280 283 289 292 296 300 305 306 304 303 310 311 313 313 312 305 299
248 247 243 246 249 252 254 255 254 255 259 265 267 269 263 262 265 264 264 267 274 270 268 268 270 272 276 278 281 288 293 298 302 304 304 302 307 312 311 313 311 303 302 306
247 242 245 247 249 252 254 256 255 258 262 264 265 267 268 264 261 264 269 273 273 272 268 266 270 273 274 276 283 286 294 298 302 301 300 302 311 310 311 312 305 305 310 307
244 243 244 246 251 249 249 249 254 257 259 263 267 269 263 262 262 272 275 272 268 266 266 269 270 271 273 279 282 290 295 298 299 299 300 307 311 309 312 307 308 314 314 311
240 242 242 243 241 244 243 248 252 256 261 269 263 273 262 260 277 273 269 266 264 264 265 267 266 269 275 279 287 291 293 298 300 299 309 309 308 312 309 310 317 315 317 313
239 240 241 241 242 243 245 249 255 259 266 268 266 269 253 277 276 268 264 263 262 263 264 262 262 269 275 283 290 289 293 300 298 308 311 308 312 311 310 317 320 320 320 320
238 238 240 242 241 241 242 246 249 255 256 256 259 265 264 280 272 263 261 261 262 259 255 257 264 268 271 287 283 290 297 297 307 314 309 311 314 304 321 323 323 331 330 328
238 237 239 239 238 239 241 243 246 245 247 252 258 259 273 277 270 270 271 264 255 249 255 258 253 261 279 276 288 296 295 307 313 309 310 314 303 317 329 320 331 337 332 341
235 235 235 236 237 237 239 236 237 242 247 250 254 258 272 273 272 278 281 249 232 237 236 236 257 266 270 293 301 296 308 311 310 307 317 306 292 332 332 324 334 343 324 358
230 230 232 234 235 235 237 239 239 237 242 249 247 260 264 266 268 269 258 206 217 224 228 251 250 275 282 297 300 299 318 311 311 307 321 278 287 332 332 334 336 342 317 322
224 221 223 227 232 232 232 233 232 234 238 242 247 251 249 264 262 262 215 209 227 222 235 251 262 280 289 299 296 317 317 314 305 321 315 238 306 347 340 340 337 341 318 318
221 214 217 219 223 224 225 228 227 227 229 233 235 240 256 257 251 230 209 214 217 224 256 259 264 285 290 295 307 321 314 311 305 319 298 215 170 320 345 350 328 339 347 187
217 210 210 215 213 219 222 221 221 223 229 230 230 244 252 247 239 219 225 211 225 238 250 261 282 292 293 298 320 321 320 316 304 328 255 214 212 320 345 356 333 336 0 84
211 205 205 211 205 210 209 213 216 219 223 225 231 235 240 234 228 228 222 212 243 236 254 265 284 293 282 310 325 327 326 312 314 332 240 218 226 299 323 343 355 333 344 46
203 201 202 201 201 203 203 203 208 212 216 212 225 229 227 221 222 217 211 214 225 243 265 280 289 273 295 315 327 334 329 312 325 337 272 225 233 276 304 339 343 347 332 155
196 197 197 198 198 194 199 202 203 206 211 210 219 218 220 217 217 207 213 207 219 246 251 262 279 267 305 326 322 338 336 319 342 347 300 223 223 253 292 332 342 1 327 179
192 192 194 197 191 190 193 199 200 204 200 208 217 218 220 215 202 211 205 210 227 231 245 247 232 268 297 318 320 333 339 330 2 3 313 222 217 236 280 315 343 9 45 88
185 187 192 192 185 189 191 195 196 199 199 215 219 218 220 199 209 197 200 207 227 235 246 227 220 248 285 308 324 332 342 346 22 28 21 204 192 192 236 250 346 18 19 157
184 185 186 182 184 186 188 191 194 195 202 208 213 207 198 203 200 196 204 216 225 233 245 214 216 240 266 301 329 338 352 9 57 44 34 18 198 197 198 192 177 43 31 92
183 187 181 182 181 184 184 188 186 190 192 205 205 197 200 203 186 199 202 213 228 229 227 208 214 228 247 287 334 347 0 43 82 65 49 33 35 201 198 183 169 124 43 342
182 181 180 180 181 184 187 185 186 185 197 204 199 197 199 195 194 194 207 218 223 220 218 207 212 214 227 255 326 356 1 50 85 87 72 67 59 66 176 200 181 162 150 114
181 179 180 182 182 185 182 184 182 186 201 202 195 199 198 194 193 196 217 216 211 232 214 205 208 202 219 226 229 15 16 51 73 95 88 79 88 84 87 173 187 177 166 168
179 178 181 182 183 181 180 183 184 190 196 194 194 198 198 193 195 203 220 216 224 225 206 204 206 201 212 216 197 266 63 67 77 83 100 100 90 84 91 92 137 174 183 171
179 179 180 181 178 179 182 182 185 192 196 193 193 198 200 193 199 215 217 217 223 222 205 204 205 205 208 220 203 193 223 87 78 80 86 99 107 103 108 109 120 127 167 192
178 179 179 178 177 180 182 181 186 193 195 194 193 198 196 192 206 214 216 217 221 226 204 207 205 203 206 216 211 197 220 203 127 64 87 96 93 99 110 105 101 121 143 151
Height
10645 10637 10668 10692 10686 10695 10708 10711 10723 10726 10723 10716 10733 10748 10757 10753 10750 10751 10755 10759 10758 10757 10756 10755 10752 10745 10744 10741 10737 10732 10727 10722 10717 10711 10705 10696 10688 10678 10668 10659 10649 10642 10636 10632
10614 10639 10676 10646 10660 10676 10689 10696 10707 10707 10709 10700 10723 10735 10746 10738 10738 10738 10739 10739 10745 10744 10743 10739 10735 10733 10733 10730 10727 10723 10719 10715 10709 10702 10696 10687 10679 10670 10659 10651 10642 10635 10630 10625
10598 10647 10620 10636 10642 10658 10672 10680 10681 10690 10694 10703 10708 10721 10727 10727 10723 10724 10723 10728 10733 10730 10727 10725 10723 10722 10722 10720 10718 10714 10711 10707 10700 10694 10686 10678 10669 10661 10650 10644 10636 10630 10623 10617
10583 10617 10614 10618 10634 10646 10655 10658 10665 10678 10687 10694 10687 10713 10712 10711 10707 10708 10714 10716 10717 10717 10716 10713 10715 10712 10712 10710 10709 10706 10703 10698 10692 10686 10678 10670 10662 10652 10644 10637 10630 10625 10616 10609
10587 10587 10597 10603 10636 10621 10651 10636 10653 10661 10671 10677 10686 10693 10698 10691 10697 10704 10706 10706 10705 10702 10702 10703 10703 10702 10701 10701 10699 10698 10695 10690 10685 10677 10671 10662 10654 10645 10638 10631 10624 10617 10610 10602
10562 10562 10570 10602 10604 10611 10623 10627 10640 10650 10658 10673 10674 10684 10685 10680 10693 10692 10692 10690 10690 10690 10691 10692 10691 10693 10693 10693 10693 10690 10687 10683 10676 10669 10662 10654 10646 10639 10633 10626 10620 10614 10606 10598
10544 10536 10554 10571 10588 10604 10609 10620 10632 10643 10652 10668 10666 10672 10672 10678 10682 10680 10678 10679 10680 10680 10681 10681 10683 10686 10686 10686 10685 10682 10679 10674 10668 10661 10655 10647 10640 10634 10629 10623 10617 10610 10601 10594
10497 10513 10542 10570 10579 10596 10599 10607 10625 10639 10643 10651 10656 10664 10667 10671 10669 10669 10668 10669 10669 10670 10671 10674 10678 10678 10680 10680 10679 10676 10672 10667 10660 10654 10647 10641 10635 10631 10627 10621 10614 10607 10599 10595
10472 10507 10525 10534 10559 10568 10595 10590 10636 10616 10631 10641 10651 10658 10658 10661 10659 10659 10660 10662 10660 10661 10666 10669 10671 10674 10674 10674 10672 10669 10665 10660 10653 10647 10641 10636 10632 10629 10625 10619 10613 10606 10600 10596
10451 10472 10494 10521 10539 10552 10563 10607 10588 10614 10626 10638 10643 10650 10649 10652 10651 10651 10653 10654 10655 10659 10662 10665 10668 10669 10670 10668 10666 10663 10659 10653 10648 10641 10636 10632 10629 10627 10624 10618 10613 10606 10603 10599
10427 10452 10481 10499 10515 10539 10560 10574 10594 10607 10616 10627 10635 10641 10639 10647 10644 10645 10648 10650 10654 10657 10660 10662 10663 10665 10664 10662 10660 10658 10652 10647 10641 10636 10631 10628 10628 10626 10624 10617 10613 10608 10604 10600
10402 10436 10453 10473 10496 10525 10548 10560 10583 10597 10612 10620 10629 10626 10636 10639 10640 10640 10644 10646 10652 10655 10658 10659 10660 10660 10659 10657 10655 10650 10647 10641 10637 10631 10628 10627 10627 10626 10624 10618 10613 10609 10604 10601
10385 10421 10436 10457 10477 10506 10519 10547 10568 10584 10596 10608 10617 10619 10627 10633 10634 10637 10640 10644 10649 10653 10654 10655 10657 10655 10654 10652 10650 10646 10642 10637 10632 10628 10625 10626 10626 10626 10623 10618 10613 10610 10606 10602
10370 10397 10423 10435 10466 10488 10508 10532 10555 10575 10588 10602 10611 10612 10625 10627 10630 10635 10638 10643 10647 10649 10651 10653 10653 10652 10650 10649 10646 10642 10636 10632 10630 10625 10623 10625 10625 10624 10623 10619 10614 10612 10608 10605
10358 10383 10400 10416 10446 10463 10489 10522 10545 10565 10581 10595 10598 10608 10616 10622 10626 10630 10635 10640 10644 10647 10649 10649 10649 10648 10648 10646 10642 10638 10632 10630 10627 10624 10622 10624 10624 10623 10622 10619 10616 10613 10611 10608
10350 10365 10386 10410 10429 10454 10482 10501 10526 10550 10568 10585 10588 10600 10608 10614 10619 10625 10630 10637 10640 10643 10644 10646 10645 10645 10645 10642 10640 10636 10631 10627 10624 10622 10620 10621 10623 10623 10622 10620 10618 10614 10613 10611
10342 10357 10379 10400 10417 10451 10474 10499 10522 10545 10559 10574 10579 10590 10598 10607 10612 10618 10629 10634 10636 10639 10641 10642 10642 10643 10642 10641 10639 10634 10629 10626 10623 10620 10618 10619 10621 10622 10622 10621 10619 10615 10613 10613
10336 10353 10367 10385 10419 10448 10470 10491 10516 10536 10549 10560 10563 10583 10593 10600 10612 10618 10623 10630 10632 10634 10637 10638 10639 10641 10640 10640 10638 10634 10629 10625 10621 10619 10616 10617 10619 10621 10622 10621 10620 10618 10616 10615
10332 10348 10360 10386 10416 10436 10460 10477 10495 10517 10535 10547 10560 10581 10591 10601 10603 10611 10619 10624 10627 10629 10633 10634 10636 10637 10638 10638 10636 10633 10628 10624 10621 10618 10616 10617 10618 10620 10620 10620 10621 10621 10619 10619
10329 10343 10363 10387 10409 10430 10448 10473 10502 10523 10540 10544 10558 10574 10583 10587 10595 10607 10613 10618 10622 10626 10630 10631 10634 10636 10637 10637 10634 10632 10628 10624 10621 10619 10618 10617 10617 10618 10619 10620 10622 10621 10621 10620
10327 10340 10355 10376 10399 10426 10450 10472 10494 10505 10527 10533 10553 10566 10574 10584 10599 10602 10608 10613 10617 10622 10626 10629 10632 10634 10635 10636 10634 10632 10629 10624 10621 10619 10619 10618 10617 10617 10618 10620 10622 10623 10623 10622
10326 10341 10358 10375 10397 10418 10439 10457 10480 10513 10520 10531 10549 10560 10568 10578 10587 10596 10602 10608 10612 10617 10622 10626 10630 10632 10633 10634 10633 10632 10630 10625 10622 10621 10621 10620 10619 10618 10619 10620 10622 10624 10625 10624
10327 10342 10358 10374 10392 10416 10443 10474 10495 10505 10512 10527 10541 10550 10561 10571 10581 10588 10596 10602 10606 10612 10618 10623 10627 10629 10632 10633 10633 10632 10631 10628 10623 10622 10622 10622 10621 10620 10621 10621 10622 10624 10626 10627
10330 10341 10355 10372 10392 10417 10442 10463 10482 10491 10501 10517 10532 10544 10555 10564 10574 10582 10589 10595 10601 10607 10614 10619 10623 10626 10630 10632 10632 10632 10630 10629 10627 10624 10623 10623 10623 10623 10623 10623 10624 10625 10627 10629
10331 10344 10358 10375 10400 10420 10435 10455 10469 10482 10496 10515 10527 10537 10549 10559 10567 10575 10582 10589 10595 10601 10609 10614 10619 10623 10627 10629 10630 10631 10631 10630 10629 10627 10625 10625 10625 10624 10625 10625 10626 10626 10628 10631
10332 10347 10362 10382 10403 10420 10436 10453 10465 10475 10491 10507 10519 10531 10543 10553 10560 10568 10576 10583 10589 10596 10603 10609 10614 10618 10622 10626 10628 10629 10630 10630 10629 10630 10628 10628 10627 10626 10626 10627 10628 10628 10629 10630